Simultaneous Nadir Overpasses (SNOs) Predictions

Prediction of SNOs between GOES-17 and NOAA-20 Satellite Orbit:

Table of predicted SNOs for the next 14.0 days since TLE Epoch: 11/4/2022
Index Date Time (GOES-17) GOES-17 Lat,Lon NOAA-20 Lat,Lon Distance(km) Time Diff (sec)
1 11/05/2022 10:33:26 0.02,-137.33 -0.09,-136.84 55.52 80
2 11/07/2022 22:33:57 -0.02,-137.31 -0.07,-137.61 33.55 80
3 11/08/2022 22:17:52 -0.02,-137.31 0.92,-133.07 482.55 80
4 11/10/2022 10:36:59 0.02,-137.30 0.23,-138.34 118.45 80
5 11/11/2022 10:20:53 0.02,-137.29 -0.76,-133.81 397.08 80
6 11/12/2022 22:40:09 -0.01,-137.27 -0.43,-139.10 209.80 80
7 11/13/2022 22:24:03 -0.01,-137.25 0.57,-134.57 305.42 80
8 11/15/2022 10:43:10 0.01,-137.24 0.59,-139.84 296.61 80
9 11/16/2022 10:27:05 0.01,-137.22 -0.41,-135.30 218.30 80
10 11/17/2022 22:46:20 -0.00,-137.19 -0.77,-140.60 389.34 80
